Stündliche Wetter Dabie

Heute, 28 Oktober, Mittwoch

Zeit Temperatur Niederschläge Wind Luftdruck Luftfeuchtigkeit
00:00 +12°C° 0 mm 1 m/S 731 mmHg 86%
01:00 +11°C° 0 mm 1 m/S 731 mmHg 86%
02:00 +11°C° 0 mm 1 m/S 731 mmHg 86%
03:00 +10°C° 0 mm 1 m/S 731 mmHg 86%
04:00 +10°C° 0 mm 1 m/S 731 mmHg 87%
05:00 +10°C° 0 mm 1 m/S 731 mmHg 86%
06:00 +10°C° 0 mm 1 m/S 731 mmHg 86%
07:00 +9°C° 0 mm 2 m/S 731 mmHg 84%
08:00 +10°C° 0 mm 2 m/S 731 mmHg 81%
09:00 +13°C° 0 mm 2 m/S 731 mmHg 78%
10:00 +13°C° 0 mm 3 m/S 731 mmHg 75%
11:00 +13°C° 0 mm 3 m/S 731 mmHg 72%
12:00 +14°C° 0 mm 3 m/S 731 mmHg 69%
13:00 +15°C° 0 mm 4 m/S 731 mmHg 66%
14:00 +14°C° 0 mm 3 m/S 731 mmHg 68%
15:00 +14°C° 0 mm 3 m/S 731 mmHg 71%
16:00 +13°C° 0 mm 3 m/S 731 mmHg 73%
17:00 +12°C° 0 mm 3 m/S 731 mmHg 74%
18:00 +11°C° 0 mm 4 m/S 731 mmHg 76%
19:00 +11°C° 0 mm 4 m/S 731 mmHg 77%
20:00 +11°C° 0 mm 4 m/S 731 mmHg 76%
21:00 +11°C° 0 mm 4 m/S 732 mmHg 74%
22:00 +11°C° 0 mm 4 m/S 732 mmHg 73%
23:00 +10°C° 0 mm 4 m/S 732 mmHg 76%

Morgen, 29 Oktober, Donnerstag

Zeit Temperatur Niederschläge Wind Luftdruck Luftfeuchtigkeit
00:00 +10°C° 0 mm 4 m/S 732 mmHg 79%
01:00 +9°C° 0 mm 3 m/S 732 mmHg 82%
02:00 +9°C° 0 mm 3 m/S 732 mmHg 83%
03:00 +9°C° 0 mm 3 m/S 731 mmHg 84%
04:00 +8°C° 0 mm 3 m/S 731 mmHg 85%
05:00 +9°C° 0 mm 3 m/S 731 mmHg 83%
06:00 +9°C° 0 mm 3 m/S 731 mmHg 81%
07:00 +9°C° 0 mm 3 m/S 731 mmHg 79%
08:00 +10°C° 0 mm 4 m/S 731 mmHg 75%
09:00 +11°C° 0 mm 4 m/S 731 mmHg 72%
10:00 +10°C° 0 mm 5 m/S 731 mmHg 68%
11:00 +12°C° 0 mm 5 m/S 731 mmHg 67%
12:00 +12°C° 0 mm 5 m/S 731 mmHg 65%
13:00 +13°C° 0 mm 6 m/S 730 mmHg 63%
14:00 +12°C° 0.2 mm 5 m/S 730 mmHg 68%
15:00 +10°C° 0.2 mm 5 m/S 731 mmHg 73%
16:00 +9°C° 0.2 mm 5 m/S 731 mmHg 78%
17:00 +9°C° 0.3 mm 5 m/S 731 mmHg 76%
18:00 +9°C° 0.3 mm 5 m/S 732 mmHg 74%
19:00 +8°C° 0.3 mm 5 m/S 732 mmHg 72%
20:00 +7°C° 0 mm 5 m/S 732 mmHg 74%
21:00 +7°C° 0 mm 5 m/S 733 mmHg 76%
22:00 +6°C° 0 mm 4 m/S 733 mmHg 78%
23:00 +6°C° 0 mm 4 m/S 734 mmHg 80%

übermorgen, 30 Oktober, Freitag

Zeit Temperatur Niederschläge Wind Luftdruck Luftfeuchtigkeit
00:00 +5°C° 0 mm 4 m/S 734 mmHg 81%
01:00 +5°C° 0 mm 4 m/S 734 mmHg 82%
02:00 +5°C° 0 mm 4 m/S 735 mmHg 83%
03:00 +5°C° 0 mm 4 m/S 735 mmHg 83%
04:00 +4°C° 0 mm 4 m/S 735 mmHg 83%
05:00 +4°C° 0 mm 3 m/S 735 mmHg 84%
06:00 +4°C° 0 mm 3 m/S 735 mmHg 84%
07:00 +4°C° 0 mm 3 m/S 735 mmHg 85%
08:00 +5°C° 0 mm 3 m/S 735 mmHg 79%
09:00 +7°C° 0 mm 3 m/S 735 mmHg 73%
10:00 +7°C° 0 mm 4 m/S 735 mmHg 68%
11:00 +7°C° 0 mm 4 m/S 735 mmHg 67%
12:00 +8°C° 0 mm 4 m/S 735 mmHg 66%
13:00 +8°C° 0 mm 5 m/S 734 mmHg 65%
14:00 +8°C° 0.3 mm 5 m/S 734 mmHg 72%
15:00 +7°C° 0.3 mm 5 m/S 733 mmHg 79%
16:00 +7°C° 0.3 mm 5 m/S 733 mmHg 86%
17:00 +7°C° 0.7 mm 5 m/S 733 mmHg 88%
18:00 +8°C° 0.7 mm 5 m/S 732 mmHg 89%
19:00 +8°C° 0.7 mm 6 m/S 732 mmHg 91%
20:00 +8°C° 1.1 mm 6 m/S 732 mmHg 92%
21:00 +9°C° 1.1 mm 6 m/S 732 mmHg 93%
22:00 +9°C° 1.1 mm 6 m/S 732 mmHg 94%
23:00 +9°C° 0.9 mm 6 m/S 732 mmHg 93%

31 Oktober, Samstag

Zeit Temperatur Niederschläge Wind Luftdruck Luftfeuchtigkeit
00:00 +10°C° 0.9 mm 6 m/S 732 mmHg 93%
01:00 +10°C° 0.9 mm 6 m/S 732 mmHg 93%
02:00 +10°C° 0.8 mm 6 m/S 732 mmHg 92%
03:00 +9°C° 0.8 mm 5 m/S 733 mmHg 92%
04:00 +10°C° 0.8 mm 4 m/S 733 mmHg 92%
05:00 +8°C° 0.2 mm 4 m/S 734 mmHg 90%
06:00 +7°C° 0.2 mm 4 m/S 735 mmHg 88%
07:00 +6°C° 0.2 mm 4 m/S 735 mmHg 86%
08:00 +8°C° 0 mm 3 m/S 736 mmHg 81%
09:00 +8°C° 0 mm 2 m/S 736 mmHg 76%
10:00 +9°C° 0 mm 2 m/S 737 mmHg 71%
11:00 +9°C° 0 mm 2 m/S 737 mmHg 66%
12:00 +11°C° 0 mm 1 m/S 737 mmHg 62%
13:00 +12°C° 0 mm 1 m/S 738 mmHg 58%
14:00 +11°C° 0 mm 1 m/S 738 mmHg 60%
15:00 +11°C° 0 mm 1 m/S 738 mmHg 63%
16:00 +9°C° 0 mm 0 m/S 738 mmHg 66%
17:00 +9°C° 0 mm 1 m/S 738 mmHg 69%
18:00 +9°C° 0 mm 1 m/S 738 mmHg 72%
19:00 +8°C° 0 mm 1 m/S 738 mmHg 75%
20:00 +8°C° 0 mm 1 m/S 738 mmHg 77%
21:00 +7°C° 0 mm 1 m/S 739 mmHg 79%
22:00 +7°C° 0 mm 1 m/S 739 mmHg 81%
23:00 +7°C° 0 mm 1 m/S 739 mmHg 83%

1 November, Sonntag

Zeit Temperatur Niederschläge Wind Luftdruck Luftfeuchtigkeit
00:00 +6°C° 0 mm 1 m/S 739 mmHg 84%
01:00 +5°C° 0 mm 2 m/S 739 mmHg 85%
02:00 +5°C° 0 mm 2 m/S 738 mmHg 85%
03:00 +5°C° 0 mm 2 m/S 738 mmHg 85%
04:00 +5°C° 0 mm 2 m/S 738 mmHg 86%
05:00 +5°C° 0 mm 2 m/S 738 mmHg 86%
06:00 +4°C° 0 mm 2 m/S 738 mmHg 86%
07:00 +4°C° 0 mm 2 m/S 738 mmHg 86%
08:00 +6°C° 0 mm 2 m/S 738 mmHg 80%
09:00 +7°C° 0 mm 2 m/S 738 mmHg 74%
10:00 +8°C° 0 mm 2 m/S 738 mmHg 67%
11:00 +9°C° 0 mm 2 m/S 738 mmHg 64%
12:00 +10°C° 0 mm 2 m/S 738 mmHg 60%
13:00 +12°C° 0 mm 2 m/S 737 mmHg 57%
14:00 +10°C° 0 mm 2 m/S 737 mmHg 60%
15:00 +9°C° 0 mm 2 m/S 737 mmHg 63%
16:00 +9°C° 0 mm 2 m/S 737 mmHg 66%
17:00 +8°C° 0 mm 2 m/S 737 mmHg 69%
18:00 +8°C° 0 mm 2 m/S 737 mmHg 72%
19:00 +7°C° 0 mm 2 m/S 737 mmHg 75%
20:00 +7°C° 0 mm 2 m/S 736 mmHg 77%
21:00 +6°C° 0 mm 2 m/S 736 mmHg 78%
22:00 +6°C° 0 mm 2 m/S 736 mmHg 80%
23:00 +6°C° 0 mm 2 m/S 736 mmHg 80%

2 November, Montag

Zeit Temperatur Niederschläge Wind Luftdruck Luftfeuchtigkeit
00:00 +6°C° 0 mm 2 m/S 736 mmHg 80%
01:00 +6°C° 0 mm 2 m/S 736 mmHg 80%
02:00 +5°C° 0 mm 2 m/S 736 mmHg 78%
03:00 +5°C° 0 mm 2 m/S 736 mmHg 77%
04:00 +5°C° 0 mm 2 m/S 735 mmHg 76%
05:00 +5°C° 0 mm 2 m/S 735 mmHg 75%
06:00 +5°C° 0 mm 2 m/S 735 mmHg 74%
07:00 +5°C° 0 mm 2 m/S 735 mmHg 74%
08:00 +6°C° 0 mm 2 m/S 735 mmHg 70%
09:00 +8°C° 0 mm 3 m/S 735 mmHg 66%
10:00 +9°C° 0 mm 3 m/S 735 mmHg 62%
11:00 +10°C° 0 mm 3 m/S 735 mmHg 59%
12:00 +12°C° 0 mm 2 m/S 735 mmHg 56%
13:00 +13°C° 0 mm 2 m/S 735 mmHg 54%
14:00 +12°C° 0 mm 2 m/S 735 mmHg 57%
15:00 +10°C° 0 mm 2 m/S 735 mmHg 60%
16:00 +9°C° 0 mm 2 m/S 734 mmHg 63%
17:00 +9°C° 0 mm 2 m/S 734 mmHg 65%
18:00 +8°C° 0 mm 2 m/S 735 mmHg 67%
19:00 +7°C° 0 mm 3 m/S 735 mmHg 68%
20:00 +7°C° 0 mm 3 m/S 734 mmHg 71%
21:00 +7°C° 0 mm 3 m/S 734 mmHg 73%
22:00 +7°C° 0 mm 3 m/S 734 mmHg 76%
23:00 +6°C° 0 mm 2 m/S 734 mmHg 77%
Mehr zeigen

Wir brauchen deine Erlaubnis

Meteoprog und unser Service Anbieter werden persönliche Daten aufbewahren, so wie Cookies, Geräte Bezeichnung oder ähnliche Technologien von deinem Gerät und Prozess, so wie Persönliche Daten Inhalte und Werbungen, genauso wie social Media und den Verkehr zu analysieren.

  • Aufbewahrung und/oder Zugang zu deiner Geräte Informationen.

    Cookies, Geräte Bezeichnung oder andere Informationen, können aufbewahrt oder Zugang zu deinem Gerät erhalten, für den Grund, der oben angegeben wird.

  • Personalisierte Werbung und Inhalte, Messungen, Einblick in das Publikum und Produkt Entwicklung.

    Werbungen und Inhalte können personalisiert werden, basierend auf ein Profil. Mehr Daten können besser personalisierte Werbungen und Inhalte hinzufügen. Werbung und Inhalte können gezeigt und gemessen werden. Einblicke über das Publikum, welche die Werbung gesehen haben und den Inhalt, können abgeleitet werden. So wie Daten können genutzt werden, um es zu verbessern oder die Benutzer Erfahrung zu verbessern das System und die Software.

Wenn du “Ich stimme zu” klickst, erlaubst du uns, die Cookies zu benutzen die Geräte Bezeichnung, den Web oder ähnliche Technologien zu benutzen. Deine Settings, können in deinem Gerät bei deinem Browser geändert werden.

Für den bestimmten Zweck, berechtigten Interessen beruhen darauf, mehr als auf den Inhalt. Du kannst mehr darüber in unseren Privaten und Cookie Politik lesen.